Weather History for KGYL - February, 2014

Change the Weather History Date:

Saturday, February 1, 2014

  Actual Average Record
Temperature  
Mean Temperature 9 °F -  
Max Temperature 18 °F - - ()
Min Temperature -1 °F - - ()
Degree Days  
Heating Degree Days 56    
Moisture  
Dew Point 2 °F    
Average Humidity 69    
Maximum Humidity 78    
Minimum Humidity 57    
Precipitation  
Precipitation 0.00 in - - ()
Sea Level Pressure  
Sea Level Pressure 29.99 in    
Wind  
Wind Speed 8 mph (WSW)    
Max Wind Speed 17 mph    
Max Gust Speed 22 mph    
Visibility 10 miles    
Events Snow    
T = Trace of Precipitation, MM = Missing Value Source: NWS Daily Summary

Daily Weather History Graph

Daily Weather History Graph

Search for Another Location

Airport or City:

Trip Planner

Search our weather history database for the weather conditions in past years. The results will help you decide how hot, cold, wet, or windy it might be!

Date:

Astronomy

Feb. 01, 2014 Rise Set
Actual Time 7:35 AM CST 5:24 PM CST
Civil Twilight 7:04 AM CST 5:56 PM CST
Nautical Twilight 6:29 AM CST 6:31 PM CST
Astronomical Twilight 5:55 AM CST 7:05 PM CST
Moon 8:18 AM CST (2/1) 8:09 PM CST (2/1)
Length of Visible Light 10h 51m
Length of Day
9h 49m
Waxing Crescent, 5% of the Moon is Illuminated
Feb 1
Waxing Crescent
Feb 6
First Quarter
Feb 14
Full
Feb 22
Last Quarter
Mar 1
New

Hourly Weather History & Observations

Time (CST) Temp. Windchill Dew Point Humidity Pressure Visibility Wind Dir Wind Speed Gust Speed Precip Events Conditions
12:12 AM 5.0 °F -4.1 °F -2.2 °F 72% 29.97 in 10.0 mi South 4.6 mph - N/A   Clear
12:33 AM 5.0 °F -2.1 °F -2.2 °F 72% 29.97 in 10.0 mi South 3.5 mph - N/A   Clear
12:52 AM 5.2 °F -5.4 °F -1.7 °F 73% 29.95 in 10.0 mi SSE 5.8 mph - N/A   Clear
1:13 AM 5.9 °F -3.0 °F -1.3 °F 72% 29.95 in 10.0 mi SSE 4.6 mph - N/A   Clear
1:32 AM 6.4 °F -2.4 °F -0.8 °F 72% 29.94 in 10.0 mi SSE 4.6 mph - N/A   Clear
1:53 AM 6.6 °F -3.7 °F -0.6 °F 72% 29.93 in 10.0 mi SSE 5.8 mph - N/A   Clear
2:12 AM 7.2 °F -5.4 °F -0.4 °F 71% 29.93 in 10.0 mi SSE 8.1 mph - N/A   Mostly Cloudy
2:33 AM 7.3 °F -2.8 °F -0.0 °F 72% 29.94 in 10.0 mi South 5.8 mph - N/A   Overcast
2:53 AM 8.2 °F -5.1 °F 0.5 °F 71% 29.93 in 10.0 mi SSE 9.2 mph - N/A   Overcast
3:13 AM 8.2 °F -3.0 °F 0.5 °F 71% 29.93 in 10.0 mi SSE 6.9 mph - N/A   Mostly Cloudy
3:32 AM 8.1 °F -3.2 °F 0.5 °F 71% 29.91 in 10.0 mi SSE 6.9 mph - N/A   Mostly Cloudy
3:53 AM 8.2 °F -4.1 °F 0.5 °F 71% 29.91 in 10.0 mi SSE 8.1 mph - N/A   Mostly Cloudy
4:12 AM 9.3 °F -2.8 °F 1.4 °F 70% 29.91 in 10.0 mi South 8.1 mph - N/A   Overcast
4:33 AM 9.9 °F -2.2 °F 2.1 °F 71% 29.90 in 10.0 mi SSE 8.1 mph - N/A   Overcast
4:53 AM 10.6 °F 1.0 °F 2.3 °F 69% 29.90 in 10.0 mi SSE 5.8 mph - N/A   Overcast
5:12 AM 11.3 °F 1.9 °F 3.2 °F 70% 29.89 in 10.0 mi South 5.8 mph - N/A   Overcast
5:33 AM 11.7 °F 2.3 °F 3.7 °F 71% 29.89 in 7.0 mi South 5.8 mph - N/A   Overcast
5:52 AM 11.1 °F 1.7 °F 3.7 °F 72% 29.89 in 10.0 mi South 5.8 mph - N/A   Overcast
6:13 AM 11.3 °F -0.4 °F 4.5 °F 74% 29.89 in 10.0 mi South 8.1 mph - N/A   Overcast
6:33 AM 11.5 °F 0.9 °F 4.6 °F 74% 29.89 in 10.0 mi South 6.9 mph - N/A   Overcast
6:52 AM 11.8 °F 1.3 °F 5.0 °F 74% 29.88 in 10.0 mi South 6.9 mph - N/A Snow Light Snow
7:13 AM 12.2 °F 1.7 °F 5.9 °F 76% 29.89 in 10.0 mi South 6.9 mph - N/A Snow Light Snow
7:33 AM 12.7 °F 2.4 °F 6.6 °F 77% 29.89 in 10.0 mi South 6.9 mph - N/A   Overcast
7:53 AM 13.1 °F 5.4 °F 7.2 °F 77% 29.90 in 10.0 mi SSW 4.6 mph - N/A   Overcast
8:13 AM 13.6 °F 6.0 °F 7.5 °F 77% 29.90 in 10.0 mi SSW 4.6 mph - N/A   Overcast
8:33 AM 14.0 °F 8.2 °F 8.2 °F 78% 29.91 in 10.0 mi SW 3.5 mph - N/A   Overcast
8:53 AM 14.0 °F 8.2 °F 8.2 °F 78% 29.91 in 10.0 mi SW 3.5 mph - N/A   Scattered Clouds
9:13 AM 14.7 °F 5.9 °F 8.6 °F 77% 29.92 in 10.0 mi SW 5.8 mph - N/A   Clear
9:33 AM 15.3 °F 6.6 °F 8.4 °F 74% 29.92 in 10.0 mi WSW 5.8 mph - N/A   Clear
9:53 AM 16.2 °F 4.7 °F 8.6 °F 72% 29.93 in 10.0 mi West 9.2 mph - N/A   Clear
10:13 AM 16.5 °F 6.0 °F 8.4 °F 70% 29.95 in 10.0 mi West 8.1 mph - N/A   Clear
10:33 AM 16.2 °F 4.7 °F 7.7 °F 69% 29.94 in 10.0 mi West 9.2 mph - N/A   Clear
10:52 AM 15.8 °F 3.4 °F 7.5 °F 70% 29.96 in 10.0 mi West 10.4 mph - N/A   Clear
11:13 AM 15.6 °F 1.8 °F 7.3 °F 70% 29.97 in 10.0 mi West 12.7 mph - N/A   Clear
11:33 AM 16.0 °F 1.1 °F 7.7 °F 70% 29.97 in 10.0 mi WNW 15.0 mph - N/A   Clear
11:53 AM 17.4 °F 4.7 °F 8.2 °F 67% 29.97 in 10.0 mi WNW 11.5 mph - N/A   Clear
12:13 PM 18.1 °F 5.6 °F 8.6 °F 66% 29.97 in 10.0 mi WNW 11.5 mph - N/A   Clear
12:33 PM 18.3 °F 4.6 °F 8.4 °F 65% 29.97 in 10.0 mi WNW 13.8 mph - N/A   Clear
12:52 PM 18.5 °F 4.9 °F 8.6 °F 65% 29.97 in 10.0 mi WNW 13.8 mph - N/A   Clear
1:13 PM 18.9 °F 6.5 °F 8.6 °F 64% 29.97 in 10.0 mi WNW 11.5 mph - N/A   Clear
1:33 PM 18.5 °F 4.9 °F 7.9 °F 63% 29.98 in 10.0 mi WNW 13.8 mph - N/A   Clear
1:53 PM 18.7 °F 5.7 °F 7.0 °F 60% 29.99 in 10.0 mi WNW 12.7 mph 21.9 mph N/A   Clear
2:13 PM 18.5 °F 3.8 °F 6.8 °F 60% 30.00 in 10.0 mi NW 16.1 mph 21.9 mph N/A   Clear
2:33 PM 18.5 °F 4.3 °F 5.9 °F 58% 30.00 in 10.0 mi WNW 15.0 mph - N/A   Clear
2:53 PM 17.6 °F 5.0 °F 6.8 °F 63% 30.01 in 10.0 mi West 11.5 mph 17.3 mph N/A   Clear
3:13 PM 16.7 °F 1.5 °F 4.6 °F 59% 30.02 in 10.0 mi WNW 16.1 mph - N/A   Clear
3:33 PM 16.0 °F 0.6 °F 3.2 °F 57% 30.04 in 10.0 mi WNW 16.1 mph 21.9 mph N/A   Clear
3:53 PM 14.5 °F -0.2 °F 4.3 °F 64% 30.05 in 10.0 mi West 13.8 mph - N/A   Clear
4:12 PM 13.3 °F -3.4 °F 2.7 °F 63% 30.05 in 10.0 mi WNW 17.3 mph - N/A   Clear
4:33 PM 12.2 °F -2.5 °F 1.8 °F 63% 30.06 in 10.0 mi WNW 12.7 mph - N/A   Clear
4:53 PM 11.1 °F -3.2 °F 0.9 °F 63% 30.07 in 10.0 mi WNW 11.5 mph - N/A   Clear
5:13 PM 9.0 °F -7.9 °F -0.4 °F 66% 30.08 in 10.0 mi West 15.0 mph - N/A   Clear
5:32 PM 7.7 °F -10.1 °F -1.3 °F 67% 30.09 in 10.0 mi West 16.1 mph - N/A   Clear
5:53 PM 6.6 °F -10.9 °F -2.2 °F 67% 30.10 in 10.0 mi West 15.0 mph - N/A   Clear
6:13 PM 5.7 °F -12.0 °F -2.9 °F 68% 30.11 in 10.0 mi West 15.0 mph - N/A   Clear
6:33 PM 5.0 °F -12.3 °F -3.8 °F 67% 30.12 in 10.0 mi West 13.8 mph - N/A   Clear
6:53 PM 4.1 °F -12.0 °F -4.5 °F 67% 30.13 in 10.0 mi West 11.5 mph - N/A   Clear
9:41 PM 1.0 °F -17.3 °F -7.8 °F 66% 30.19 in 10.0 mi WNW 13.8 mph - N/A   Clear
9:47 PM 0.9 °F -16.0 °F -8.0 °F 66% 30.19 in 10.0 mi WNW 11.5 mph - N/A   Clear
10:12 PM 0.7 °F -17.0 °F -7.8 °F 68% 30.20 in 10.0 mi WNW 12.7 mph - N/A   Clear
10:33 PM 0.1 °F -16.0 °F -8.3 °F 68% 30.21 in 10.0 mi WNW 10.4 mph - N/A   Clear
10:53 PM -0.4 °F -16.7 °F -8.5 °F 69% 30.21 in 10.0 mi WNW 10.4 mph - N/A   Clear
11:12 PM -0.4 °F -15.7 °F -8.5 °F 69% 30.21 in 10.0 mi WNW 9.2 mph - N/A   Clear
11:33 PM -0.4 °F -14.7 °F -8.1 °F 70% 30.22 in 10.0 mi WNW 8.1 mph - N/A   Clear
11:53 PM -1.3 °F -14.5 °F -8.7 °F 71% 30.22 in 10.0 mi West 6.9 mph - N/A   Clear